[[{"header":{"parameterUnit":"m.s-1","parameterCategory":1,"la1":30.2991,"la2":30.254,"lo1":-89.0895,"lo2":-89.0444,"dy":0.0017,"dx":0.0017,"nx":28,"ny":28,"refTime":"2024-06-19T21:00:00:Z","depth":0,"parameterNumber":2,"parameterNumberName":"U-component_of_WINDS"},"data":[0,0,0,0,0,0,0,0,0,0,0,0,0,0,0,0,0,0,0,0,0,0,0,0,0,0,0,0,0,0,0,0,0,0,0,0,0,0,0,0,0,0,0,0,0,0,0,0,0,0,0,0,0,0,0,0,0,0,-7.4408,-7.4408,0,-7.4408,-7.4408,-7.4408,-7.4235,-7.4231,-7.4226,-7.4222,-7.4221,-7.4225,-7.4229,0,0,0,0,0,0,0,0,0,0,0,0,0,-7.4261,-7.4264,-7.4408,-7.4408,-7.4408,-7.4408,-7.4408,-7.4408,-7.4236,-7.423,-7.4225,-7.422,-7.4219,-7.4224,-7.4229,0,0,0,0,0,0,0,0,0,0,0,0,0,-7.4299,-7.4265,-7.4408,-7.4323,-7.4315,-7.4408,-7.4408,-7.4408,-7.4237,-7.423,-7.4223,-7.4217,-7.4218,-7.4224,-7.423,-7.4405,0,0,-7.4249,-7.4252,0,0,0,0,0,0,0,0,-7.4297,-7.4305,-7.4335,-7.4329,-7.432,-7.4315,-7.4355,-7.4407,-7.4239,-7.4267,-7.4222,-7.4214,-7.4257,-7.426,-7.4275,-7.4405,-7.4405,-7.425,-7.4254,-7.4256,-7.4258,0,0,0,0,0,0,0,-7.4295,-7.4304,-7.4408,-7.4336,-7.4327,-7.4284,-7.4282,-7.4364,-7.43,-7.4264,-7.4251,-7.4253,-7.4252,-7.4269,-7.4273,-7.4405,-7.425,-7.4255,-7.4259,-7.4261,-7.468,-7.4687,0,0,0,0,0,0,-7.4304,-7.4303,-7.4408,-7.4408,-7.4292,-7.4292,-7.429,-7.4323,-7.4299,-7.4288,-7.4259,-7.4245,-7.4262,-7.4266,-7.4273,-7.4477,-7.4256,-7.4262,-7.4266,-7.4673,-7.4681,-7.4689,0,0,0,0,0,0,-7.4301,-7.4315,-7.4408,-7.4352,-7.4361,-7.4302,-7.4341,-7.4327,-7.4344,-7.4295,-7.4283,-7.4289,-7.4257,-7.4264,-7.4374,-7.4474,-7.4265,-7.4271,-7.4664,-7.4675,-7.4685,-7.4886,0,0,0,0,0,0,-7.4298,-7.4315,-7.4381,-7.4355,-7.4364,-7.451,-7.4347,-7.4332,-7.4355,-7.4337,-7.432,-7.431,-7.4252,-7.4365,-7.438,-7.4479,-7.4276,-7.4655,-7.4669,-7.4682,-7.487,-7.4902,-7.493,0,0,0,0,0,-7.4293,-7.4437,-7.4385,-7.4399,-7.4445,-7.4516,-7.4521,-7.4451,-7.4364,-7.443,-7.4399,-7.4311,-7.4461,-7.4378,-7.4393,-7.4496,-7.4648,-7.4665,-7.4681,-7.4857,-7.4896,-7.493,0,0,0,0,0,0,-7.4475,-7.4432,-7.4374,-7.4513,-7.452,-7.4486,-7.4567,-7.4495,-7.4526,-7.4507,-7.4419,-7.4417,-7.4541,-7.4529,-7.4437,-7.4664,-7.4539,-7.4559,-7.4668,-7.4705,-7.4734,-7.4734,-7.4281,0,0,0,0,0,-7.4532,-7.4593,-7.4551,-7.4678,-7.4685,-7.4626,-7.4654,-7.46,-7.4602,-7.4604,-7.4581,-7.4587,-7.4636,-7.4669,-7.4711,-7.4868,-7.4862,-7.4946,-7.4976,-7.5001,-7.502,-7.5103,-7.514,-7.4744,-7.4743,-7.4743,0,0,-7.4648,-7.4632,-7.4676,-7.4715,-7.4713,-7.4778,-7.4629,-7.4704,-7.4752,-7.4615,-7.4718,-7.4702,-7.4703,-7.4837,-7.4895,-7.4831,-7.5128,-7.5022,-7.5042,-7.5047,-7.5124,-7.5161,-7.5195,-7.4755,-7.4753,-7.4751,0,0,-7.4895,-7.4889,-7.4995,-7.4997,-7.4997,-7.4957,-7.4983,-7.4961,-7.4946,-7.5047,-7.4947,-7.5002,-7.5087,-7.5093,-7.5107,-7.5359,-7.5279,-7.5375,-7.5531,-7.5614,-7.5645,-7.5672,-7.5763,-7.5796,-7.5393,-7.5394,-7.5394,0,-7.504,-7.5135,-7.5058,-7.5141,-7.5161,-7.5041,-7.5148,-7.5154,-7.5168,-7.5185,-7.5113,-7.5219,-7.5211,-7.5345,-7.5407,-7.5422,-7.5449,-7.5376,-7.5647,-7.5673,-7.5697,-7.5783,-7.5817,-7.5405,-7.5404,-7.5403,-7.5402,0,-7.5314,-7.5381,-7.5467,-7.5484,-7.5514,-7.5609,-7.5547,-7.5586,-7.553,-7.5499,-7.5604,-7.5591,-7.5629,-7.5657,-7.5602,-7.5785,-7.5745,-7.5662,-7.5534,-7.5748,-7.5827,-7.5859,-7.5422,-7.5418,-7.5414,-7.5412,0,0,-7.5673,-7.5649,-7.5682,-7.5689,-7.5681,-7.5732,-7.5821,-7.5859,-7.5895,-7.5909,-7.5983,-7.6059,-7.5982,-7.5998,-7.5943,-7.6016,-7.6217,-7.5923,-7.5921,-7.5978,-7.6418,-7.6482,-7.6521,-7.6165,-7.6171,-7.6175,-7.6419,0,-7.5912,-7.6064,-7.5999,-7.6157,-7.6219,-7.6107,-7.6185,-7.619,-7.6163,-7.6212,-7.6182,-7.6238,-7.6132,-7.6141,-7.6207,-7.6179,-7.6304,-7.616,-7.6232,-7.6236,-7.6236,-7.6562,-7.6628,-7.6858,-7.6449,-7.6454,-7.6458,0,-7.6211,-7.6239,-7.6405,-7.6387,-7.6411,-7.6482,-7.6512,-7.656,-7.6563,-7.6539,-7.6559,-7.6488,-7.6575,-7.6449,-7.6569,-7.6472,-7.6498,-7.6489,-7.6496,-7.65,-7.636,-7.6575,-7.693,-7.6965,-7.6505,-7.6501,-7.6498,0,-7.6458,-7.6537,-7.6646,-7.6656,-7.6638,-7.6691,-7.6687,-7.6683,-7.6711,-7.6737,-7.6754,-7.6791,-7.6811,-7.6841,-7.6783,-7.6696,-7.6911,-7.6779,-7.6893,-7.6895,-7.6943,-7.6941,-7.7308,-7.6961,-7.696,-7.6959,-7.6959,0,-7.6732,-7.6838,-7.6757,-7.6824,-7.6939,-7.6864,-7.698,-7.6963,-7.6961,-7.7023,-7.6929,-7.699,-7.6909,-7.6962,-7.6917,-7.7023,-7.7033,-7.7016,-7.7003,-7.7024,-7.7027,-7.704,-7.7023,-7.6968,-7.6966,-7.6965,-7.6963,0,-7.7027,-7.6977,-7.7089,-7.7064,-7.706,-7.7147,-7.7125,-7.7187,-7.7154,-7.7234,-7.7249,-7.7198,-7.7256,-7.7201,-7.7255,-7.7225,-7.7368,-7.7331,-7.7367,-7.7357,-7.7474,-7.7464,-7.7862,-7.7911,-7.7533,-7.7537,-7.754,0,-7.7205,-7.7283,-7.7268,-7.7303,-7.7305,-7.7363,-7.7391,-7.732,-7.7353,-7.7364,-7.7424,-7.7474,-7.751,-7.7608,-7.7576,-7.7617,-7.7581,-7.7718,-7.7587,-7.7607,-7.7584,-7.758,-7.7588,-7.7745,-7.7749,-7.7753,-7.7756,0,-7.7527,-7.7498,-7.7542,-7.758,-7.7616,-7.7641,-7.7659,-7.7693,-7.762,-7.7663,-7.7721,-7.7749,-7.7805,-7.7857,-7.7889,-7.7883,-7.7809,-7.7798,-7.7826,-7.7849,-7.7867,-7.786,-7.744,-7.7789,-7.7785,-7.7783,-7.7781,-7.778,-7.7768,-7.7834,-7.7834,-7.7886,-7.7893,-7.7912,-7.7969,-7.7945,-7.7992,-7.8033,-7.7988,-7.806,-7.8062,-7.8098,-7.8102,-7.8157,-7.81,-7.8141,-7.8152,-7.8163,-7.8181,-7.7859,-7.8163,-7.8162,-7.8161,-7.816,-7.8159,0,-7.8085,-7.808,-7.813,-7.8159,-7.8201,-7.8127,-7.8144,-7.8184,-7.8248,-7.8257,-7.8295,-7.8363,-7.8413,-7.8386,-7.8429,-7.8478,-7.8445,-7.8492,-7.8488,-7.8488,-7.8229,-7.8201,-7.8518,-7.8518,-7.8518,-7.8518,-7.8518,-7.8518,-7.8255,-7.8363,-7.8335,-7.8445,-7.8439,-7.8509,-7.8525,-7.8543,-7.8549,-7.863,-7.8671,-7.8653,-7.8648,-7.869,-7.8733,-7.8724,-7.8744,-7.8804,-7.8783,-7.8541,-7.8506,-7.8472,-7.8445,-7.8809,-7.8809,-7.9036,-7.9038,-7.904]},{"header":{"parameterUnit":"m.s-1","parameterCategory":1,"la1":30.2991,"la2":30.254,"lo1":-89.0895,"lo2":-89.0444,"dy":0.0017,"dx":0.0017,"nx":28,"ny":28,"refTime":"2024-06-19T21:00:00:Z","depth":0,"parameterNumber":3,"parameterNumberName":"V-component_of_WINDS"},"data":[0,0,0,0,0,0,0,0,0,0,0,0,0,0,0,0,0,0,0,0,0,0,0,0,0,0,0,0,0,0,0,0,0,0,0,0,0,0,0,0,0,0,0,0,0,0,0,0,0,0,0,0,0,0,0,0,0,0,-1.6624,-1.6624,0,-1.6625,-1.6625,-1.6625,-1.659,-1.659,-1.6589,-1.6588,-1.659,-1.6591,-1.6591,0,0,0,0,0,0,0,0,0,0,0,0,0,-1.6595,-1.6595,-1.6624,-1.6624,-1.6624,-1.6625,-1.6625,-1.6625,-1.6591,-1.6589,-1.6588,-1.6587,-1.6589,-1.659,-1.6592,0,0,0,0,0,0,0,0,0,0,0,0,0,-1.6603,-1.6596,-1.6624,-1.6607,-1.6606,-1.6625,-1.6625,-1.6625,-1.6591,-1.6589,-1.6588,-1.6587,-1.6589,-1.659,-1.6592,-1.6627,0,0,-1.6596,-1.6596,0,0,0,0,0,0,0,0,-1.6602,-1.6604,-1.661,-1.6609,-1.6607,-1.6606,-1.6615,-1.6626,-1.6591,-1.6597,-1.6588,-1.6586,-1.6596,-1.6597,-1.66,-1.6628,-1.6628,-1.6596,-1.6597,-1.6597,-1.6598,0,0,0,0,0,0,0,-1.6602,-1.6604,-1.6625,-1.661,-1.6608,-1.66,-1.6599,-1.6617,-1.6604,-1.6596,-1.6594,-1.6594,-1.6595,-1.6599,-1.66,-1.6628,-1.6596,-1.6597,-1.6598,-1.6598,-1.6683,-1.6684,0,0,0,0,0,0,-1.6603,-1.6603,-1.6625,-1.6625,-1.6601,-1.6601,-1.6601,-1.6608,-1.6604,-1.6602,-1.6595,-1.6592,-1.6597,-1.6598,-1.66,-1.6641,-1.6597,-1.6599,-1.6599,-1.6682,-1.6683,-1.6685,0,0,0,0,0,0,-1.6603,-1.6606,-1.6625,-1.6613,-1.6615,-1.6603,-1.6611,-1.6609,-1.6612,-1.6603,-1.6601,-1.6601,-1.6596,-1.6598,-1.662,-1.6641,-1.6599,-1.66,-1.668,-1.6682,-1.6684,-1.6724,0,0,0,0,0,0,-1.6602,-1.6606,-1.6619,-1.6614,-1.6616,-1.6645,-1.6613,-1.661,-1.6614,-1.6611,-1.6608,-1.6607,-1.6595,-1.6619,-1.6622,-1.6642,-1.6602,-1.6678,-1.6681,-1.6684,-1.6721,-1.6727,-1.6732,0,0,0,0,0,-1.6601,-1.6631,-1.662,-1.6623,-1.6632,-1.6646,-1.6648,-1.6634,-1.6616,-1.663,-1.6624,-1.6607,-1.6638,-1.6621,-1.6625,-1.6645,-1.6677,-1.668,-1.6683,-1.6718,-1.6726,-1.6732,0,0,0,0,0,0,-1.664,-1.663,-1.6618,-1.6647,-1.6648,-1.6641,-1.6657,-1.6643,-1.6649,-1.6645,-1.6628,-1.6628,-1.6653,-1.6651,-1.6633,-1.6679,-1.6654,-1.6658,-1.6679,-1.6687,-1.6692,-1.6693,-1.6603,0,0,0,0,0,-1.6652,-1.6664,-1.6654,-1.6681,-1.6682,-1.6669,-1.6675,-1.6664,-1.6664,-1.6665,-1.6661,-1.6662,-1.6672,-1.6679,-1.6688,-1.672,-1.6719,-1.6735,-1.6741,-1.6746,-1.675,-1.6766,-1.6774,-1.6696,-1.6696,-1.6695,0,0,-1.6677,-1.6672,-1.6681,-1.6688,-1.6688,-1.6701,-1.667,-1.6685,-1.6695,-1.6667,-1.6688,-1.6685,-1.6685,-1.6713,-1.6724,-1.6712,-1.6771,-1.675,-1.6754,-1.6756,-1.677,-1.6778,-1.6784,-1.6698,-1.6697,-1.6697,0,0,-1.6728,-1.6726,-1.6748,-1.6747,-1.6746,-1.6738,-1.6743,-1.6738,-1.6734,-1.6754,-1.6734,-1.6745,-1.6763,-1.6763,-1.6766,-1.6816,-1.6801,-1.6819,-1.6851,-1.6867,-1.6873,-1.6878,-1.6896,-1.6902,-1.6823,-1.6823,-1.6823,0,-1.676,-1.6778,-1.6761,-1.6777,-1.678,-1.6755,-1.6776,-1.6777,-1.6779,-1.6782,-1.6768,-1.6788,-1.6787,-1.6814,-1.6826,-1.6829,-1.6834,-1.682,-1.6873,-1.6878,-1.6883,-1.69,-1.6907,-1.6826,-1.6825,-1.6825,-1.6825,0,-1.6816,-1.6829,-1.6846,-1.6848,-1.6853,-1.6872,-1.6857,-1.6865,-1.6853,-1.6846,-1.6866,-1.6863,-1.687,-1.6876,-1.6865,-1.6901,-1.6893,-1.6876,-1.6851,-1.6893,-1.6908,-1.6915,-1.6829,-1.6828,-1.6827,-1.6827,0,0,-1.6894,-1.6884,-1.6891,-1.6891,-1.6887,-1.6897,-1.6914,-1.692,-1.6927,-1.6928,-1.6942,-1.6957,-1.6941,-1.6944,-1.6933,-1.6947,-1.6986,-1.6928,-1.6928,-1.6939,-1.7025,-1.7038,-1.7046,-1.6975,-1.6976,-1.6977,-1.7025,0,-1.6944,-1.6972,-1.6957,-1.6987,-1.6998,-1.6974,-1.6988,-1.6988,-1.6981,-1.699,-1.6982,-1.6993,-1.6971,-1.6973,-1.6985,-1.6979,-1.7003,-1.6975,-1.6988,-1.6989,-1.699,-1.7054,-1.7068,-1.7113,-1.7031,-1.7032,-1.7033,0,-1.7006,-1.701,-1.7041,-1.7034,-1.7038,-1.7052,-1.7055,-1.7064,-1.7062,-1.7056,-1.7059,-1.7044,-1.706,-1.7034,-1.7056,-1.7037,-1.7042,-1.7039,-1.7041,-1.7042,-1.7014,-1.7057,-1.7127,-1.7134,-1.7042,-1.7041,-1.704,0,-1.706,-1.7072,-1.7092,-1.7093,-1.7085,-1.7095,-1.7093,-1.7089,-1.7094,-1.7097,-1.7099,-1.7105,-1.7108,-1.7113,-1.7099,-1.7082,-1.7123,-1.7096,-1.7119,-1.7119,-1.7129,-1.7129,-1.7202,-1.7132,-1.7131,-1.7131,-1.7131,0,-1.7118,-1.7138,-1.7116,-1.7129,-1.715,-1.7132,-1.7154,-1.7149,-1.7146,-1.7157,-1.7135,-1.7146,-1.7128,-1.7137,-1.7126,-1.7146,-1.7147,-1.7143,-1.714,-1.7145,-1.7146,-1.7149,-1.7145,-1.7133,-1.7133,-1.7132,-1.7132,0,-1.7182,-1.7168,-1.7188,-1.7178,-1.7176,-1.7193,-1.7184,-1.7196,-1.7187,-1.7201,-1.7203,-1.7189,-1.7199,-1.7185,-1.7194,-1.7186,-1.7213,-1.7206,-1.7214,-1.7212,-1.7235,-1.7233,-1.7312,-1.7321,-1.7245,-1.7246,-1.7247,0,-1.722,-1.7235,-1.7226,-1.7231,-1.7229,-1.7239,-1.7242,-1.7224,-1.7229,-1.7227,-1.7239,-1.7246,-1.7251,-1.7267,-1.7258,-1.7264,-1.7256,-1.7283,-1.7257,-1.7261,-1.7257,-1.7256,-1.7258,-1.7289,-1.729,-1.7291,-1.7292,0,-1.7289,-1.7281,-1.7287,-1.729,-1.7295,-1.7297,-1.7297,-1.7303,-1.7284,-1.7291,-1.7299,-1.7303,-1.731,-1.7318,-1.7321,-1.7318,-1.7302,-1.73,-1.7305,-1.7311,-1.7315,-1.7313,-1.7229,-1.7298,-1.7298,-1.7297,-1.7297,-1.7296,-1.7342,-1.7353,-1.7348,-1.7355,-1.7353,-1.7354,-1.7363,-1.7355,-1.7362,-1.7366,-1.7355,-1.7366,-1.7363,-1.7365,-1.7364,-1.7373,-1.7361,-1.7369,-1.7371,-1.7373,-1.7377,-1.7313,-1.7373,-1.7373,-1.7373,-1.7373,-1.7373,0,-1.741,-1.7405,-1.7411,-1.7412,-1.7417,-1.7399,-1.7399,-1.7405,-1.7414,-1.7412,-1.7417,-1.7427,-1.7433,-1.7424,-1.7429,-1.7438,-1.7431,-1.744,-1.744,-1.7439,-1.7387,-1.7382,-1.7446,-1.7446,-1.7446,-1.7446,-1.7446,-1.7446,-1.7446,-1.7464,-1.7455,-1.7472,-1.7467,-1.7477,-1.7478,-1.7478,-1.7476,-1.7488,-1.7493,-1.7486,-1.7481,-1.7486,-1.7491,-1.7488,-1.7491,-1.7503,-1.7498,-1.745,-1.7443,-1.7436,-1.7431,-1.7504,-1.7504,-1.7549,-1.755,-1.755]}]]